Location: Jastrz?bie Smiary
(52.0392°N, 22.2467°E)
Time: 01:01:07
(UTC+00:00)

Daily predictions for brighter satellites

Satellite Brightness Start Highest point End
(mag) Time Altitude Azimuth Time Altitude Azimuth Time Altitude Azimuth
STARLINK-1212 3.1 00:01:08 10° W 00:04:07 43° SSW 00:07:06 10° SE
STARLINK-1105 3.1 00:01:37 10° W 00:04:35 42° SSW 00:07:32 10° SE
STARLINK-1209 3.5 00:01:54 10° W 00:04:48 34° SSW 00:06:56 16° SSE
STARLINK-1247 3.2 00:02:31 10° W 00:05:30 42° SSW 00:08:29 10° SE
ATLAS CENTAUR R/B 1.2 00:03:28 10° WNW 00:05:51 69° SSW 00:10:43 10° SE
STARLINK-1227 3.1 00:02:59 10° W 00:05:57 42° SSW 00:08:53 10° SE
STARLINK-1208 3.5 00:01:59 10° WNW 00:06:08 77° SSW 00:10:16 10° ESE
STARLINK-1226 3.2 00:03:51 10° W 00:06:49 41° SSW 00:09:47 10° SE
Cosmos 1898 Rocket 4.3 00:01:40 10° NNW 00:06:56 54° ENE 00:12:09 10° SE
STARLINK-1215 3.2 00:04:47 10° W 00:07:45 41° SSW 00:10:44 10° SE
STARLINK-52 4.3 00:07:16 22° SSE 00:07:58 24° SE 00:10:38 10° E
STARLINK-1225 3.8 00:04:14 10° W 00:08:23 77° N 00:12:33 10° E
STARLINK-1217 3.2 00:06:33 10° W 00:09:31 40° SSW 00:12:28 10° SE
CZ-4C R/B 4.2 00:07:08 10° SE 00:09:46 14° ESE 00:12:34 10° ENE
STARLINK-1229 3.2 00:07:29 10° W 00:10:26 39° SSW 00:13:23 10° SE
STARLINK-1271 3.5 00:06:59 10° WNW 00:11:08 74° SSW 00:15:16 10° ESE
STARLINK-1270 3.3 00:08:20 10° W 00:11:18 39° SSW 00:14:14 10° SE
Cosmos 2058 Rocket 3.9 00:07:20 10° NNW 00:11:22 35° W 00:13:46 20° SW
Meteor 1-29 4.3 00:08:41 10° N 00:11:41 29° WNW 00:13:32 18° WSW
Lacrosse 4 Rocket 3.6 00:08:31 10° NNW 00:12:28 31° NE 00:16:19 10° ESE
SL-08 ROCKET BODY 4.4 00:08:22 17° S 00:13:00 84° E 00:18:54 10° NNE
STARLINK-1189 3.3 00:10:11 10° W 00:13:08 38° SSW 00:16:04 10° SE
STARLINK-1230 3.8 00:09:12 10° W 00:13:21 77° N 00:17:31 10° E
STARLINK-1188 3.3 00:11:04 10° W 00:14:01 38° SSW 00:16:56 10° SE
STARLINK-1235 3.6 00:11:49 10° W 00:14:37 31° SSW 00:17:25 10° SSE
STARLINK-1187 3.4 00:12:13 10° W 00:15:04 34° SSW 00:17:55 10° SE
SJ 16-02 1.8 00:11:32 10° NNW 00:15:58 64° ENE 00:20:22 10° SSE
STARLINK-1154 3.5 00:11:58 10° WNW 00:16:06 71° SSW 00:20:14 10° ESE
STARLINK-1191 3.3 00:13:34 10° W 00:16:27 36° SSW 00:19:20 10° SE
COSMOS 2455 3.0 00:11:40 16° SW 00:16:31 75° NW 00:22:35 10° NE
Cosmos 1937 Rocket 4.5 00:12:12 10° NNW 00:17:18 49° ENE 00:22:23 10° SE
STARLINK-1221 3.4 00:14:26 10° W 00:17:19 36° SSW 00:20:12 10° SE
STARLINK-1222 3.4 00:15:20 10° W 00:18:13 35° SSW 00:21:05 10° SE
STARLINK-1243 3.7 00:14:11 10° W 00:18:21 78° N 00:22:30 10° E
Cosmos 2084 4.4 00:15:46 19° S 00:18:32 39° SE 00:22:42 10° ENE
Meteor 2-10 Rocket 3.8 00:13:28 10° N 00:18:53 71° ENE 00:24:03 10° SSE
STARLINK-1214 3.4 00:16:15 10° W 00:19:07 35° SSW 00:21:58 10° SE
Starlink 7 placeholder 1.9 00:19:27 46° SSE 00:19:29 46° SSE 00:21:25 10° E
SL-14 R/B 3.9 00:18:39 20° SW 00:20:58 43° WNW 00:24:41 10° N
STARLINK-1197 3.5 00:16:56 10° WNW 00:21:04 68° SSW 00:25:11 10° ESE
Cosmos 1709 Rocket 4.4 00:17:08 11° S 00:22:53 61° E 00:28:56 10° NNE
Cosmos 1386 Rocket 4.4 00:18:10 16° S 00:23:06 87° W 00:29:19 10° N
Cosmos 1300 3.7 00:19:46 10° NNW 00:23:09 31° W 00:25:04 19° SW
STARLINK-1236 3.7 00:19:11 10° W 00:23:20 79° N 00:27:30 10° E
Okean 1-7 Rocket 4.4 00:22:03 18° SW 00:25:00 39° WNW 00:29:16 10° N
Cosmos 1174 4.0 00:23:33 18° WSW 00:25:52 54° NW 00:29:41 10° NE
STARLINK-1198 3.5 00:21:54 10° WNW 00:26:01 65° SSW 00:30:07 10° ESE
Cosmos 921 Rocket 3.0 00:23:34 20° SSW 00:26:30 77° WNW 00:30:51 10° NNE
BREEZE M DEB (TANK) 2.9 00:26:49 22° WSW 00:27:50 31° SSW 00:31:22 10° SE
STARLINK-1199 3.6 00:26:55 10° WNW 00:31:01 62° SSW 00:35:07 10° ESE
Cosmos 1626 Rocket 3.6 00:29:36 18° SSW 00:32:44 68° WNW 00:37:05 10° N
Cosmos 2219 3.2 00:27:14 10° NW 00:32:52 65° WSW 00:38:25 10° SSE
STARLINK-1269 3.7 00:29:08 10° W 00:33:18 81° N 00:37:28 10° E
STARLINK-1210 3.6 00:31:53 10° WNW 00:35:58 59° SSW 00:40:03 10° SE
Cosmos 1626 3.5 00:34:31 15° WSW 00:36:51 28° WNW 00:40:07 10° N
STARLINK-1200 3.7 00:34:08 10° W 00:38:18 82° N 00:42:28 10° E
STARLINK-60 2.9 00:36:27 17° WSW 00:38:44 64° SSE 00:41:55 10° ENE
Cosmos 1980 Rocket 4.4 00:35:21 10° SE 00:38:47 17° E 00:42:15 10° ENE
Nadezhda 1 Rocket 4.4 00:34:43 10° NNW 00:40:35 48° W 00:45:52 13° SSW
STARLINK-1219 3.6 00:36:52 10° WNW 00:40:56 56° SSW 00:44:59 10° SE
STARLINK-1192 3.7 00:39:07 10° W 00:43:17 84° N 00:47:27 10° E
FALCON 9 R/B 4.4 00:38:25 13° SW 00:45:00 33° SSE 01:06:09 10° ESE
STARLINK-1211 3.7 00:41:50 10° WNW 00:45:53 53° SSW 00:49:55 10° SE
UNK 4.3 00:44:00 14° SSW 00:47:34 39° W 00:51:54 10° NNW
STARLINK-1244 3.7 00:44:05 10° WNW 00:48:15 85° N 00:52:25 10° E
Cosmos 2297 Rocket 2.2 00:42:55 10° NW 00:48:31 61° WSW 00:54:03 10° SSE
AQUA 3.8 00:44:07 10° NNE 00:48:55 90° ESE 00:53:18 12° SSW
Cosmos 220 Rocket 4.2 00:46:16 15° SW 00:49:49 66° WNW 00:54:16 10° NNE
CZ-4B R/B 3.6 00:45:15 10° NNE 00:50:24 86° WNW 00:55:16 12° SSW
Cosmos 1812 Rocket 4.0 00:46:22 10° NNW 00:50:39 46° W 00:54:30 12° SSW
STARLINK-1245 3.7 00:46:50 10° WNW 00:50:52 51° SSW 00:54:52 10° SE
ERBS 3.7 00:47:47 10° WNW 00:50:59 41° NNE 00:54:11 10° E
ERS-2 3.3 00:48:06 10° SE 00:51:36 44° ENE 00:55:07 10° N
Cosmos 2082 3.8 00:46:27 10° NNW 00:52:11 83° ENE 00:57:50 10° SSE
STARLINK-1138 3.6 00:49:04 10° WNW 00:53:14 87° NNE 00:57:24 10° ESE
SL-4 R/B 2.4 00:49:12 10° WSW 00:53:58 67° SSE 00:58:36 10° E
Cosmos 1437 4.2 00:52:48 14° WSW 00:54:42 23° WNW 00:57:13 10° NNW
STARLINK-1233 3.8 00:51:49 10° WNW 00:55:49 48° SSW 00:59:49 10° SE
STARLINK-1203 3.7 00:51:40 10° WNW 00:55:53 89° N 01:00:06 10° ESE
Cosmos 990 Rocket 4.0 00:50:57 10° NNW 00:56:12 68° WSW 01:01:24 10° SSE
CBERS-1 4.2 00:51:40 10° NNE 00:56:49 77° ESE 01:01:56 10° S
STARLINK-1143 3.6 00:54:03 10° WNW 00:58:13 89° NNE 01:02:23 10° ESE
STARLINK-1204 3.9 00:56:49 10° WNW 01:00:47 45° SSW 01:04:45 10° SE
ATLAS CENTAUR R/B 2.3 00:57:11 10° WSW 01:01:18 42° NW 01:05:10 10° NE
SL-16 R/B 3.2 00:56:02 11° SSW 01:01:27 37° W 01:07:09 10° NNW
Alouette 2 Rocket 4.4 00:54:53 10° NNW 01:01:55 62° W 01:06:28 10° S
STARLINK-1241 3.6 00:59:02 10° WNW 01:03:12 89° SSW 01:07:21 10° ESE
Cosmos 2263 Rocket 4.1 00:58:53 10° NNW 01:04:03 35° NE 01:09:09 10° ESE
BREEZE-M R/B 3.1 01:01:08 12° SW 01:04:34 35° SSE 01:07:07 10° E
NOSS 3-4 (A) 4.3 00:58:51 10° WSW 01:04:44 47° NNW 01:11:08 10° NE
NOSS 3-4 (C) 4.3 00:58:56 10° WSW 01:04:49 48° NNW 01:11:15 10° NE
FALCON 9 DEB 3.7 01:02:07 14° SW 01:04:51 44° SSE 01:08:11 10° E
Cosmos 1602 Rocket 4.2 01:01:58 13° SW 01:05:36 42° WNW 01:09:45 10° N
Cosmos 1455 2.5 01:02:05 10° NNW 01:05:41 46° W 01:09:16 10° SSW
Cosmos 1825 Rocket 3.6 01:01:22 10° S 01:05:41 85° ESE 01:10:03 10° NNE
STARLINK-1238 3.9 01:01:46 10° WNW 01:05:43 43° SSW 01:09:39 10° SE
STARLINK-29 3.0 01:04:34 12° WSW 01:07:24 60° SSE 01:10:33 10° ENE
ATLAS 3B R/B 3.9 01:02:44 10° WNW 01:07:29 20° WSW 01:12:21 10° SSW
STARLINK-1239 3.6 01:04:00 10° WNW 01:08:10 86° SSW 01:12:20 10° ESE
IRS-1D 3.7 01:04:14 10° NNE 01:09:38 86° WNW 01:14:56 10° SSW
STARLINK-1201 4.0 01:06:47 10° W 01:10:41 40° SSW 01:14:35 10° SE
BREEZE-M DEB (TANK) 3.5 01:09:30 13° SSW 01:10:47 21° SSE 01:13:06 10° E
STARLINK-1369 4.5 01:08:12 12° SSW 01:10:54 28° SE 01:13:58 10° E
Meteor 1-28 Rocket 3.7 01:07:16 10° SSE 01:11:01 65° ENE 01:14:47 10° N
GP-B 3.3 01:07:07 10° N 01:11:31 58° W 01:15:52 10° SSW
STARLINK-1240 3.6 01:09:00 10° WNW 01:13:10 84° SSW 01:17:19 10° ESE
STARLINK-1372 4.4 01:10:25 12° SSW 01:13:14 29° SE 01:16:20 10° E
BREEZE-M DEB (TANK) 1.3 01:12:57 10° WSW 01:15:17 50° S 01:17:51 10° E
Cosmos-2242 3.2 01:11:07 10° NNW 01:15:19 55° W 01:19:27 10° S
STARLINK-1378 4.4 01:12:32 11° SSW 01:15:26 30° SSE 01:18:34 10° E
STARLINK-1206 4.1 01:11:47 10° W 01:15:39 38° SSW 01:19:30 10° SE
STARLINK-1329 4.4 01:12:59 11° SSW 01:15:55 30° SSE 01:19:04 10° E
COBE Rocket 4.1 01:11:42 10° SSE 01:16:39 80° ENE 01:21:45 10° N
STARLINK-1365 4.3 01:13:46 11° SSW 01:16:44 31° SSE 01:19:54 10° E
Cosmos 2221 4.0 01:13:05 10° N 01:17:11 40° ENE 01:21:17 10° SE
STARLINK-1379 4.3 01:14:39 11° SSW 01:17:38 31° SSE 01:20:48 10° E
Cosmos 1400 Rocket 3.0 01:13:35 10° N 01:17:43 79° ENE 01:21:51 10° SSE
STARLINK-1216 3.6 01:13:58 10° WNW 01:18:08 81° SSW 01:22:17 10° ESE
STARLINK-1362 4.3 01:15:10 11° SSW 01:18:11 31° SSE 01:21:21 10° E
STARLINK-1373 4.3 01:17:22 11° SSW 01:20:27 32° SSE 01:23:40 10° E
STARLINK-1205 4.2 01:16:47 10° W 01:20:36 36° SSW 01:24:24 10° SSE
Cosmos 2181 Rocket 4.2 01:15:30 10° NNW 01:21:47 59° W 01:28:05 10° S
STARLINK-1390 4.3 01:19:27 10° SSW 01:22:36 33° SSE 01:25:50 10° E
SL-08 R/B 3.3 01:18:00 10° S 01:22:40 66° WSW 01:27:19 10° NNW
STARLINK-1237 3.6 01:18:58 10° WNW 01:23:07 78° SSW 01:27:16 10° ESE
RESURS DK-1 3.6 01:19:49 10° WSW 01:23:33 32° NW 01:27:20 10° NNE
Cosmos 2227 Rocket 2.7 01:18:41 10° NW 01:23:56 39° WSW 01:29:09 10° S
IRS-P3 4.2 01:19:04 10° NNE 01:24:27 90° WNW 01:29:47 10° SSW
CZ-2D R/B 2.9 01:20:06 10° N 01:24:59 39° WNW 01:29:48 10° SW
STARLINK-1218 4.3 01:21:46 10° W 01:25:32 34° SW 01:29:17 10° SSE
ADEOS II 2.1 01:22:38 10° NNE 01:27:54 79° WNW 01:33:10 10° SSW
STARLINK-1202 3.6 01:23:57 10° WNW 01:28:06 75° SSW 01:32:15 10° ESE
CZ-4C R/B 3.6 01:24:41 10° SSE 01:28:15 64° ENE 01:31:53 10° N
Cosmos 1763 Rocket 3.5 01:24:12 10° SSW 01:29:20 89° WNW 01:34:28 10° NNE
Cosmos 1697 Rocket 3.1 01:24:04 10° SSW 01:29:39 65° ESE 01:35:17 10° NE
STARLINK-1254 4.3 01:26:48 10° W 01:30:29 32° SW 01:34:11 10° SSE
Cosmos 1703 3.5 01:27:12 10° SSW 01:31:06 56° WNW 01:35:00 10° N
ATLAS 2AS CENTAUR R/B 4.0 01:26:35 10° W 01:34:12 45° NNW 01:41:36 10° NE
Resurs 1-4 Rocket 3.2 01:30:00 10° N 01:34:40 33° WNW 01:39:21 10° WSW
STARLINK-1231 4.4 01:31:49 10° W 01:35:27 30° SW 01:39:05 10° SSE
Cosmos 1315 Rocket 3.8 01:33:49 10° N 01:37:39 49° ENE 01:41:27 10° SSE
STARLINK-1246 3.6 01:33:54 10° WNW 01:38:02 70° SSW 01:42:09 10° ESE
ARIANE 5 R/B 2.6 01:34:57 10° NNE 01:40:04 87° ESE 01:45:07 10° SSW
CZ-2C R/B 3.9 01:36:37 10° NNE 01:40:08 40° E 01:43:38 10° S
